When you browse on this site, cookies collect data to enhance your experience and personalize the content and advertising you see.
Visit our Privacy Policy to learn more. By continuing to use the site, you agree to this use of cookies and data.
  • In Deutschland
  • Länderverzeichnis
  • Für 7 Tage
  • Wassertemperatur
  • Satellitenkarten
  • Wetterkarte
  • Widgets
  • user-avatar
    Anmelden

    Stündliche Wetter Parnamirim

    Heute, 13 Dezember, Donnerstag

    Zeit Temperatur Niederschläge Wind Luftdruck Luftfeuchtigkeit
    00:00 +27°C° 0.1 mm 5 m/S 755 mmHg 75%
    01:00 +27°C° 0.1 mm 5 m/S 755 mmHg 77%
    02:00 +27°C° 0.1 mm 5 m/S 755 mmHg 78%
    03:00 +26°C° 0.1 mm 5 m/S 755 mmHg 79%
    04:00 +26°C° 0.1 mm 5 m/S 755 mmHg 81%
    05:00 +26°C° 0.1 mm 5 m/S 755 mmHg 80%
    06:00 +27°C° 0.1 mm 5 m/S 755 mmHg 79%
    07:00 +27°C° 0.1 mm 5 m/S 755 mmHg 79%
    08:00 +29°C° 0 mm 5 m/S 755 mmHg 71%
    09:00 +30°C° 0 mm 6 m/S 755 mmHg 63%
    10:00 +33°C° 0 mm 6 m/S 755 mmHg 55%
    11:00 +34°C° 0 mm 6 m/S 755 mmHg 52%
    12:00 +35°C° 0 mm 6 m/S 755 mmHg 49%
    13:00 +35°C° 0 mm 6 m/S 755 mmHg 47%
    14:00 +35°C° 0 mm 6 m/S 755 mmHg 49%
    15:00 +34°C° 0 mm 6 m/S 754 mmHg 51%
    16:00 +34°C° 0 mm 6 m/S 754 mmHg 52%
    17:00 +33°C° 0 mm 6 m/S 754 mmHg 59%
    18:00 +30°C° 0 mm 6 m/S 754 mmHg 65%
    19:00 +29°C° 0 mm 5 m/S 754 mmHg 71%
    20:00 +29°C° 0.1 mm 5 m/S 755 mmHg 74%
    21:00 +28°C° 0.1 mm 5 m/S 755 mmHg 77%
    22:00 +28°C° 0.1 mm 4 m/S 756 mmHg 79%
    23:00 +27°C° 0.3 mm 4 m/S 756 mmHg 81%

    Morgen, 14 Dezember, Freitag

    Zeit Temperatur Niederschläge Wind Luftdruck Luftfeuchtigkeit
    00:00 +27°C° 0.3 mm 4 m/S 756 mmHg 82%
    01:00 +27°C° 0.3 mm 4 m/S 756 mmHg 84%
    02:00 +26°C° 0.3 mm 4 m/S 755 mmHg 85%
    03:00 +26°C° 0.3 mm 4 m/S 755 mmHg 85%
    04:00 +26°C° 0.3 mm 4 m/S 754 mmHg 86%
    05:00 +26°C° 0.1 mm 4 m/S 755 mmHg 85%
    06:00 +26°C° 0.1 mm 4 m/S 755 mmHg 83%
    07:00 +27°C° 0.1 mm 4 m/S 755 mmHg 82%
    08:00 +28°C° 0.2 mm 4 m/S 755 mmHg 74%
    09:00 +30°C° 0.2 mm 5 m/S 756 mmHg 66%
    10:00 +33°C° 0.2 mm 5 m/S 756 mmHg 57%
    11:00 +33°C° 0.4 mm 5 m/S 756 mmHg 55%
    12:00 +34°C° 0.4 mm 6 m/S 756 mmHg 53%
    13:00 +35°C° 0.4 mm 6 m/S 755 mmHg 51%
    14:00 +34°C° 0.6 mm 6 m/S 755 mmHg 53%
    15:00 +34°C° 0.6 mm 6 m/S 755 mmHg 55%
    16:00 +33°C° 0.6 mm 6 m/S 754 mmHg 57%
    17:00 +32°C° 0.3 mm 6 m/S 755 mmHg 61%
    18:00 +30°C° 0.3 mm 5 m/S 755 mmHg 65%
    19:00 +29°C° 0.3 mm 5 m/S 755 mmHg 70%
    20:00 +28°C° 0.2 mm 5 m/S 756 mmHg 72%
    21:00 +28°C° 0.2 mm 5 m/S 756 mmHg 75%
    22:00 +28°C° 0.2 mm 5 m/S 757 mmHg 77%
    23:00 +27°C° 0.3 mm 5 m/S 757 mmHg 78%

    übermorgen, 15 Dezember, Samstag

    Zeit Temperatur Niederschläge Wind Luftdruck Luftfeuchtigkeit
    00:00 +27°C° 0.3 mm 5 m/S 756 mmHg 80%
    01:00 +27°C° 0.3 mm 4 m/S 756 mmHg 81%
    02:00 +27°C° 0.2 mm 4 m/S 756 mmHg 82%
    03:00 +27°C° 0.2 mm 4 m/S 756 mmHg 83%
    04:00 +26°C° 0.2 mm 4 m/S 755 mmHg 84%
    05:00 +27°C° 0.1 mm 4 m/S 756 mmHg 83%
    06:00 +27°C° 0.1 mm 5 m/S 756 mmHg 81%
    07:00 +27°C° 0.1 mm 5 m/S 756 mmHg 80%
    08:00 +29°C° 0.1 mm 5 m/S 756 mmHg 71%
    09:00 +32°C° 0.1 mm 6 m/S 757 mmHg 63%
    10:00 +33°C° 0.1 mm 6 m/S 757 mmHg 54%
    11:00 +34°C° 0 mm 7 m/S 756 mmHg 52%
    12:00 +34°C° 0 mm 7 m/S 756 mmHg 51%
    13:00 +35°C° 0 mm 7 m/S 756 mmHg 49%
    14:00 +35°C° 0 mm 7 m/S 755 mmHg 50%
    15:00 +34°C° 0 mm 7 m/S 755 mmHg 52%
    16:00 +34°C° 0 mm 7 m/S 754 mmHg 53%
    17:00 +33°C° 0.1 mm 6 m/S 755 mmHg 59%
    18:00 +30°C° 0.1 mm 6 m/S 755 mmHg 66%
    19:00 +29°C° 0.1 mm 6 m/S 755 mmHg 72%
    20:00 +29°C° 0.1 mm 5 m/S 756 mmHg 75%
    21:00 +28°C° 0.1 mm 5 m/S 756 mmHg 77%
    22:00 +28°C° 0.1 mm 5 m/S 757 mmHg 80%
    23:00 +28°C° 0.1 mm 5 m/S 757 mmHg 81%

    16 Dezember, Sonntag

    Zeit Temperatur Niederschläge Wind Luftdruck Luftfeuchtigkeit
    00:00 +27°C° 0.1 mm 5 m/S 756 mmHg 83%
    01:00 +27°C° 0.1 mm 4 m/S 756 mmHg 84%
    02:00 +27°C° 0.1 mm 4 m/S 755 mmHg 85%
    03:00 +27°C° 0.1 mm 4 m/S 755 mmHg 87%
    04:00 +26°C° 0.1 mm 4 m/S 755 mmHg 88%
    05:00 +27°C° 0.1 mm 4 m/S 755 mmHg 87%
    06:00 +27°C° 0.1 mm 4 m/S 756 mmHg 85%
    07:00 +27°C° 0.1 mm 4 m/S 756 mmHg 84%
    08:00 +29°C° 0.1 mm 4 m/S 756 mmHg 76%
    09:00 +30°C° 0.1 mm 5 m/S 757 mmHg 67%
    10:00 +33°C° 0.1 mm 5 m/S 757 mmHg 58%
    11:00 +34°C° 0.4 mm 5 m/S 756 mmHg 55%
    12:00 +34°C° 0.4 mm 6 m/S 756 mmHg 53%
    13:00 +35°C° 0.4 mm 6 m/S 756 mmHg 50%
    14:00 +35°C° 0.5 mm 6 m/S 755 mmHg 51%
    15:00 +34°C° 0.5 mm 6 m/S 755 mmHg 53%
    16:00 +34°C° 0.5 mm 6 m/S 754 mmHg 54%
    17:00 +32°C° 1 mm 6 m/S 755 mmHg 60%
    18:00 +30°C° 1 mm 6 m/S 755 mmHg 66%
    19:00 +29°C° 1 mm 6 m/S 755 mmHg 71%
    20:00 +28°C° 1.3 mm 5 m/S 756 mmHg 73%
    21:00 +28°C° 1.3 mm 5 m/S 756 mmHg 75%
    22:00 +28°C° 1.3 mm 5 m/S 756 mmHg 77%
    23:00 +27°C° 1.6 mm 5 m/S 756 mmHg 78%

    17 Dezember, Montag

    Zeit Temperatur Niederschläge Wind Luftdruck Luftfeuchtigkeit
    00:00 +27°C° 1.6 mm 5 m/S 756 mmHg 80%
    01:00 +27°C° 1.6 mm 5 m/S 755 mmHg 81%
    02:00 +27°C° 2.8 mm 5 m/S 755 mmHg 82%
    03:00 +27°C° 2.8 mm 6 m/S 755 mmHg 83%
    04:00 +27°C° 2.8 mm 6 m/S 755 mmHg 84%
    05:00 +27°C° 2.5 mm 5 m/S 755 mmHg 85%
    06:00 +27°C° 2.5 mm 5 m/S 755 mmHg 86%
    07:00 +27°C° 2.5 mm 5 m/S 756 mmHg 88%
    08:00 +27°C° 2.2 mm 5 m/S 756 mmHg 84%
    09:00 +28°C° 2.2 mm 5 m/S 756 mmHg 81%
    10:00 +29°C° 2.2 mm 5 m/S 756 mmHg 78%
    11:00 +30°C° 1.8 mm 5 m/S 756 mmHg 75%
    12:00 +30°C° 1.8 mm 5 m/S 756 mmHg 73%
    13:00 +32°C° 1.8 mm 5 m/S 755 mmHg 70%
    14:00 +32°C° 1 mm 5 m/S 755 mmHg 71%
    15:00 +30°C° 1 mm 5 m/S 755 mmHg 72%
    16:00 +30°C° 1 mm 5 m/S 754 mmHg 73%
    17:00 +29°C° 0.4 mm 5 m/S 755 mmHg 77%
    18:00 +28°C° 0.4 mm 4 m/S 755 mmHg 81%
    19:00 +27°C° 0.4 mm 4 m/S 755 mmHg 85%
    20:00 +27°C° 0.7 mm 4 m/S 756 mmHg 86%
    21:00 +27°C° 0.7 mm 4 m/S 756 mmHg 87%
    22:00 +27°C° 0.7 mm 4 m/S 756 mmHg 88%
    23:00 +27°C° 0.9 mm 4 m/S 756 mmHg 88%

    18 Dezember, Dienstag

    Zeit Temperatur Niederschläge Wind Luftdruck Luftfeuchtigkeit
    00:00 +26°C° 0.9 mm 4 m/S 756 mmHg 88%
    01:00 +26°C° 0.9 mm 4 m/S 755 mmHg 88%
    02:00 +26°C° 0.5 mm 4 m/S 755 mmHg 89%
    03:00 +26°C° 0.5 mm 4 m/S 755 mmHg 89%
    04:00 +26°C° 0.5 mm 3 m/S 755 mmHg 90%
    05:00 +26°C° 0.2 mm 4 m/S 755 mmHg 89%
    06:00 +26°C° 0.2 mm 4 m/S 755 mmHg 88%
    07:00 +26°C° 0.2 mm 4 m/S 756 mmHg 88%
    08:00 +28°C° 0.1 mm 4 m/S 756 mmHg 80%
    09:00 +29°C° 0.1 mm 5 m/S 756 mmHg 73%
    10:00 +32°C° 0.1 mm 5 m/S 756 mmHg 66%
    11:00 +33°C° 0.1 mm 5 m/S 756 mmHg 62%
    12:00 +34°C° 0.1 mm 5 m/S 756 mmHg 58%
    13:00 +35°C° 0.1 mm 5 m/S 755 mmHg 55%
    14:00 +34°C° 0.1 mm 6 m/S 755 mmHg 56%
    15:00 +34°C° 0.1 mm 6 m/S 754 mmHg 57%
    16:00 +34°C° 0.1 mm 6 m/S 754 mmHg 58%
    17:00 +32°C° 0.1 mm 6 m/S 754 mmHg 64%
    18:00 +30°C° 0.1 mm 5 m/S 755 mmHg 70%
    19:00 +29°C° 0.1 mm 5 m/S 755 mmHg 75%
    20:00 +29°C° 0.1 mm 5 m/S 755 mmHg 78%
    21:00 +28°C° 0.1 mm 5 m/S 756 mmHg 80%
    22:00 +28°C° 0.1 mm 5 m/S 756 mmHg 83%
    23:00 +28°C° 0.2 mm 4 m/S 756 mmHg 84%
    Mehr zeigen